星链-3165 (STARLINK-3165 )

导读

STARLINK-3165是美国太空探索技术公司(SpaceX)星链星座中的一颗低轨通信卫星,于北京时间2022年2月3日发射升空,属于星链互联网项目的组网卫星。它运行在约550公里的近地轨道,采用Ku/Ka波段通信技术与霍尔推进系统,可提供高速低延迟宽带服务,旨在补充全球偏远地区网络覆盖,是星链全球卫星互联网组网的组成部分。星链卫星设计寿命约5-7年,寿命结束后会主动离轨再入大气层焚毁。

Basic Information
目录编号:
51471
目录名称:
STARLINK-3165
国际标识:
2022-010R
轨道中心:
EARTH
卫星名称:
星链-3165
卫星全名:
星链-3165 (STARLINK-3165 )
卫星状态:
已陨落 最后检测时间 2023-10-17
发射日期:
2022-02-03 UTC
国别 :
美国 (US)
星等 :
--
Orbit Information
数据来源 国际轨道数据
星历时间: 2023-10-18T06:35:49+0800
轨道信息已过期970天
半长轴: 6549.372km
偏心率: 0.0005839
轨道倾角: 53.201°
近地点辐角 208.183°
升交点赤经 187.303°
平近点角 231.670°
近地点: 167.412km
远地点: 175.062km
周期: 87.914分钟
每日圈数: 16.379603
Detailed Information
固有亮度:
5
最大亮度:
2.5
卫星平台:
Starlink v1.5
覆盖范围:
全球
运营商:
太空探索技术公司
运营商所在国:
美国
制造商(研发单位):
太空探索技术公司
制造商所在国:
美国
使用方式:
暂无
Satellite Introduction
星链(Starlink)计划是由太空探索技术公司(SpaceX)提出的一个巨型低轨卫星互联网星座项目,计划在2019年至2024年间在太空搭建由约1.2万颗卫星组成的“星链”网络,其中1584颗将部署在地球上空550千米处的近地轨道,并从2020年开始工作。该卫星已陨落。